Regional Weather Roundup
Issued by NWS

Home | Current Version | Previous Version | Text Only | Print | Product List | Glossary On
Versions: 1 2 3 4 5 6 7 8 9 10 11 12 13 14 15 16 17 18 19 20 21 22 23 24 25 26 27 28 29 30 31 32 33 34 35 36 37 38 39 40 41 42 43 44 45 46 47 48 49 50
000
ASUS43 KDMX 082206
RWRIA

WEATHER ROUNDUP FOR IOWA
NATIONAL WEATHER SERVICE DES MOINES IA
400 PM CST SUN DEC 08 2019

NOTE: "FAIR" INDICATES FEW OR NO CLOUDS BELOW 12,000 FEET WITH NO
SIGNIFICANT WEATHER AND/OR OBSTRUCTIONS TO VISIBILITY.

* - THESE STATIONS ARE NOT NWS STATIONS...THUS NOT UNDER NWS
QUALITY CONTROL.  THEY ALSO DO NOT REPORT WEATHER SUCH
AS PRECIPITATION OR FOG.

IAZ001>003-012>014-020>022-031>034-043>046-082300-
   NORTHWEST IOWA

CITY           SKY/WX    TMP DP  RH WIND       PRES   REMARKS
CARROLL *      CLEAR     45  36  70 SE8       29.71R
CHEROKEE *     CLEAR     37  32  83 NE5       29.72S WCI  33
DENISON *      CLEAR     45  37  76 SE6       29.71S
LE MARS *      CLEAR     37  34  87 NE14      29.71R WCI  29
SHELDON *      FOG       28  28 100 NE14      29.72S VSB 1/4 WCI  17
SIOUX CITY     CLEAR     46  37  71 E5        29.69S
SPENCER        FOG       30  28  92 NE14      29.74F VSB 1/2 WCI  19
STORM LAKE *   CLEAR     39  36  87 NE13      29.68R WCI  32
$$

IAZ055>058-069>071-079>083-090>094-082300-
   SOUTHWEST IOWA

CITY           SKY/WX    TMP DP  RH WIND       PRES   REMARKS
ATLANTIC *     CLEAR     45  36  70 SE3       29.71R
AUDUBON *      CLEAR     46  36  66 SE3       29.72R
CLARINDA *     CLEAR     46  39  76 CALM      29.73S
COUNCIL BLFS * CLEAR     45  34  65 SE7       29.69R
CRESTON *      CLEAR     45  39  81 SE5       29.72R
HARLAN  *      CLEAR     45  34  65 SE7       29.71R
LAMONI         CLOUDY    48  40  73 S5        29.72S
RED OAK *      CLEAR     45  36  70 S6        29.72R
SHENANDOAH *   CLEAR     45  37  76 SE6       29.70S
$$

IAZ047>049-059>061-072>074-084-082300-
   CENTRAL IOWA

CITY           SKY/WX    TMP DP  RH WIND       PRES   REMARKS
AMES           CLEAR     43  33  68 SE3       29.73S
ANKENY *       CLEAR     43  34  70 CALM      29.75S
BOONE *          N/A    N/A N/A N/A MISG        N/A
CHARITON *     CLOUDY    46  45  93 S7        29.74R
DES MOINES     CLOUDY    45  34  65 E3        29.74R
GRINNELL*      CLEAR     44  36  73 CALM      29.76S
KNOXVILLE *    CLEAR     46  41  81 S5        29.73S
MARSHALLTOWN   CLEAR     41  34  76 E5        29.74R
NEWTON *       CLEAR     45  37  76 CALM      29.74S
PELLA *        CLEAR     46  38  73 CALM      29.76R
PERRY *        FAIR      43  33  67 E6        29.73R
$$

IAZ004>006-015-016-023>025-035-036-082300-
   NORTH CENTRAL IOWA

CITY           SKY/WX    TMP DP  RH WIND       PRES   REMARKS
ALGONA *       CLOUDY    30  30 100 N13       29.73S FOG     WCI  20
CLARION *      CLEAR     39  36  87 NE7       29.74R WCI  34
ESTHERVILLE    FOG       27  27 100 NE12      29.75S VSB 1/4 WCI  17
FORT DODGE *   CLEAR     42  35  76 NE7       29.73S
MASON CITY     CLEAR     37  31  78 N8        29.75S WCI  31
FOREST CITY *  FAIR      34  32  93 N6        29.75R WCI  29
WEBSTER CITY * CLEAR     43  37  81 NE7       29.71S
IOWA FALLS *   FAIR      47  32  56 SE5       29.74S
$$

IAZ007>011-017>019-026>030-037>042-050>054-066-082300-
   NORTHEAST IOWA

CITY           SKY/WX    TMP DP  RH WIND       PRES   REMARKS
CEDAR RAPIDS   FAIR      43  37  79 SE3       29.76R
CHARLES CITY * FAIR      39  32  75 N3        29.75S
CLINTON *      CLOUDY    45  39  79 S6        29.80S
DECORAH *      FAIR      43  34  70 CALM      29.74R
DUBUQUE        FAIR      40  33  76 S5        29.76F
MONTICELLO *   FAIR      43  37  81 S3        29.77S
OELWEIN *      CLEAR     39  36  87 S6        29.75S WCI  35
WATERLOO       FAIR      43  32  65 SE5       29.75R
$$

IAZ064-065-067-068-078-082300-
   EAST CENTRAL IOWA

CITY           SKY/WX    TMP DP  RH WIND       PRES   REMARKS
DAVENPORT      CLOUDY    46  39  76 S7        29.80S
IOWA CITY      FAIR      47  38  71 S5        29.79R
MT. PLEASANT * CLOUDY    50  43  76 SW7       29.78S
MUSCATINE *    CLOUDY    48  41  76 S8        29.79S
QUAD CITIES    CLOUDY    48  40  73 SW5       29.78S
$$

IAZ062-063-075>077-085>089-095>099-082300-
   SOUTHEAST IOWA

CITY           SKY/WX    TMP DP  RH WIND       PRES   REMARKS
BURLINGTON     CLOUDY    50  41  71 S9        29.78S
FAIRFIELD *    CLOUDY    48  43  81 SE6       29.76S
FORT MADISON * CLOUDY    50  45  81 S5        29.79R
KEOKUK *       CLOUDY    50  43  76 S6        29.78S
OSKALOOSA *    CLOUDY    50  42  74 CALM      29.76S
CENTERVILLE *  FAIR      46  45  93 CALM      29.75S
OTTUMWA        CLOUDY    48  40  73 S3        29.74F
WASHINGTON *   MOCLDY    48  45  87 S3        29.76S
$$

ABBREVIATIONS USED IN REMARKS
   TC - TEMPERATURES IN CELSIUS
  WCI - WIND CHILL INDEX
   HX - HEAT INDEX
  VSB - VISIBILITY
$$




USA.gov is the U.S. government's official web portal to all federal, state and local government web resources and services.